Fort Campbell, KY

1:15 AM CDT on March 26, 2017 (GMT -0500)
Campbell Army Air Field

Weather History for KHOP - October, 2012

Change the Weather History Date:

Wednesday, October 3, 2012

  Actual Average Record
Temperature  
Mean Temperature 62 °F -  
Max Temperature 74 °F 74 °F 86 °F (2000)
Min Temperature 51 °F 50 °F 33 °F (2003)
Degree Days  
Heating Degree Days 2    
Growing Degree Days 12 (Base 50)    
Moisture  
Dew Point 53 °F    
Average Humidity 75    
Maximum Humidity 100    
Minimum Humidity 41    
Precipitation  
Precipitation 0.00 in - - ()
Sea Level Pressure  
Sea Level Pressure 30.07 in    
Wind  
Wind Speed 3 mph (South)    
Max Wind Speed 10 mph    
Max Gust Speed -    
Visibility 10 miles    
Events      
Averages and records for this station are not official NWS values.
T = Trace of Precipitation, MM = Missing Value Source: NWS Daily Summary

Daily Weather History Graph

Daily Weather History Graph

Search for Another Location

Airport or City:

Trip Planner

Search our weather history database for the weather conditions in past years. The results will help you decide how hot, cold, wet, or windy it might be!

Date:

Astronomy

Oct. 03, 2012 Rise Set
Actual Time 6:47 AM CDT 6:29 PM CDT
Civil Twilight 6:21 AM CDT 6:55 PM CDT
Nautical Twilight 5:51 AM CDT 7:25 PM CDT
Astronomical Twilight 5:21 AM CDT 7:55 PM CDT
Moon 8:28 PM CDT (10/3) 10:03 AM CDT (10/3)
Length of Visible Light 12h 34m
Length of Day
11h 42m
Waning Gibbous, 88% of the Moon is Illuminated
Oct 3
Waning Gibbous
Oct 8
Last Quarter
Oct 15
New
Oct 21
First Quarter
Oct 29
Full

Hourly Weather History & Observations

Time (CDT) Temp. Dew Point Humidity Pressure Visibility Wind Dir Wind Speed Gust Speed Precip Events Conditions
12:55 AM 54.7 °F 54.7 °F 100% 29.98 in 10.0 mi Calm Calm - N/A   Clear
1:55 AM 53.8 °F 53.8 °F 100% 30.00 in 10.0 mi Calm Calm - N/A   Clear
2:55 AM 53.8 °F 53.8 °F 100% 30.00 in 10.0 mi Calm Calm - N/A   Clear
3:55 AM 52.3 °F 52.3 °F 100% 30.01 in 10.0 mi Calm Calm - N/A   Clear
4:55 AM 51.8 °F 51.8 °F 100% 30.03 in 10.0 mi South 3.5 mph - N/A   Clear
5:55 AM 51.6 °F 51.6 °F 100% 30.05 in 10.0 mi Calm Calm - N/A   Clear
6:55 AM 51.8 °F 51.8 °F 100% 30.06 in 10.0 mi Calm Calm - N/A   Clear
7:55 AM 54.0 °F 54.0 °F 100% 30.08 in 10.0 mi SSE 3.5 mph - N/A   Clear
8:55 AM 58.8 °F 56.1 °F 91% 30.10 in 10.0 mi South 4.6 mph - N/A   Clear
9:55 AM 64.8 °F 55.6 °F 72% 30.10 in 10.0 mi SSW 6.9 mph - N/A   Clear
10:55 AM 68.9 °F 54.5 °F 60% 30.10 in 10.0 mi SSW 6.9 mph - N/A   Clear
11:55 AM 71.8 °F 51.4 °F 49% 30.09 in 10.0 mi WSW 8.1 mph - N/A   Clear
12:55 PM 73.2 °F 51.3 °F 46% 30.08 in 10.0 mi South 8.1 mph - N/A   Clear
1:55 PM 74.1 °F 48.9 °F 41% 30.06 in 10.0 mi South 8.1 mph - N/A   Clear
2:55 PM 74.8 °F 49.8 °F 41% 30.06 in 10.0 mi South 10.4 mph - N/A   Clear
3:55 PM 74.3 °F 51.3 °F 44% 30.06 in 10.0 mi South 8.1 mph - N/A   Clear
4:55 PM 72.9 °F 52.2 °F 48% 30.07 in 10.0 mi SSW 10.4 mph - N/A   Clear
5:55 PM 70.3 °F 53.2 °F 55% 30.08 in 10.0 mi South 5.8 mph - N/A   Clear
6:55 PM 66.4 °F 53.4 °F 63% 30.09 in 10.0 mi South 4.6 mph - N/A   Clear
7:55 PM 63.1 °F 55.0 °F 75% 30.11 in 10.0 mi Calm Calm - N/A   Clear
8:55 PM 63.1 °F 55.2 °F 75% 30.12 in 10.0 mi SSW 3.5 mph - N/A   Clear
9:55 PM 62.4 °F 55.4 °F 78% 30.14 in 10.0 mi Calm Calm - N/A   Clear
10:55 PM 60.8 °F 55.6 °F 83% 30.15 in 10.0 mi Calm Calm - N/A   Clear
11:55 PM 59.4 °F 56.1 °F 89% 30.16 in 10.0 mi Calm Calm - N/A   Clear